Weather History for Puebla, Pue., Mexico

Change the Weather History Date:

Thursday, August 8, 2013

  Actual Average Record
Temperature  
Mean Temperature 66 °F -  
Max Temperature 79 °F 70 °F - ()
Min Temperature 52 °F 51 °F - ()
Growing Degree Days 16 (Base 50)    
Moisture  
Dew Point 49 °F    
Average Humidity 59    
Maximum Humidity 94    
Minimum Humidity 14    
Precipitation  
Precipitation 0.43 in - - ()
Sea Level Pressure  
Sea Level Pressure 30.17 in    
Wind  
Wind Speed 4 mph ()    
Max Wind Speed 14 mph    
Max Gust Speed -    
Visibility 6.3 miles    
Events Rain , Thunderstorm    
T = Trace of Precipitation, MM = Missing Value Source: Averaged Metar Reports

Daily Weather History Graph

Daily Weather History Graph

Search for Another Location

Airport:

Trip Planner

Search our weather history database for the weather conditions in past years. The results will help you decide how hot, cold, wet, or windy it might be!

Date:

Astronomy

Aug. 08, 2013 Rise Set
Actual Time 7:11 AM CDT 8:04 PM CDT
Civil Twilight 6:48 AM CDT 8:27 PM CDT
Nautical Twilight 6:21 AM CDT 8:54 PM CDT
Astronomical Twilight 5:54 AM CDT 9:22 PM CDT
Moon 8:37 AM CDT (8/8) 9:10 PM CDT (8/8)
Length of Visible Light 13h 38m
Length of Day
12h 52m
Waxing Crescent, 3% of the Moon is Illuminated
Aug 8
Waxing Crescent
Aug 14
First Quarter
Aug 20
Full
Aug 28
Last Quarter
Sep 5
New

Hourly Weather History & Observations

Time (CDT) Temp. Dew Point Humidity Pressure Visibility Wind Dir Wind Speed Gust Speed Precip Events Conditions
12:45 AM 60 °F 50 °F 60% 29.83 in 3 mi NE 2.2 mph - -   Partly Cloudy
12:47 AM 57.2 °F 55.4 °F 94% 30.37 in 8.0 mi South 5.8 mph - N/A   Scattered Clouds
1:44 AM 55.4 °F 51.8 °F 88% 30.37 in 8.0 mi South 4.6 mph - N/A   Scattered Clouds
3:45 AM 57 °F 47 °F 61% 29.87 in 3 mi Calm Calm - -  
5:49 AM 55.4 °F 48.2 °F 77% 30.33 in 8.0 mi SW 3.5 mph - N/A   Partly Cloudy
6:45 AM 54 °F 48 °F 74% 29.90 in 3 mi Calm Calm - -  
6:49 AM 53.6 °F 50.0 °F 88% 30.33 in 8.0 mi WNW 4.6 mph - N/A   Overcast
7:52 AM 53.6 °F 51.8 °F 94% 30.34 in 8.0 mi NNW 4.6 mph - N/A   Mostly Cloudy
8:46 AM 57.2 °F 53.6 °F 88% 30.36 in 5.0 mi North 4.6 mph - N/A   Mostly Cloudy
9:44 AM 62.6 °F 53.6 °F 72% 30.36 in 6.0 mi North 3.5 mph - N/A   Scattered Clouds
9:50 AM 65 °F 42 °F 31% 29.95 in 3 mi North 2.2 mph - -   Haze
10:49 AM 66.2 °F 53.6 °F 64% 30.36 in 6.0 mi SE 4.6 mph - N/A   Mostly Cloudy
11:46 AM 68.0 °F 51.8 °F 56% 30.35 in 5.0 mi ENE 6.9 mph - N/A   Mostly Cloudy
12:47 PM 69.8 °F 48.2 °F 46% 30.34 in 5.0 mi SE 4.6 mph - N/A   Mostly Cloudy
12:50 PM 73 °F 37 °F 17% 29.89 in 6 mi WSW 4.5 mph - -   Haze
1:41 PM 73.4 °F 46.4 °F 38% 30.32 in 5.0 mi East 8.1 mph - N/A   Scattered Clouds
2:48 PM 75.2 °F 41.0 °F 29% 30.29 in 5.0 mi NNE 4.6 mph - N/A   Scattered Clouds
3:40 PM 77.0 °F 39.2 °F 26% 30.27 in 10.0 mi SSW 3.5 mph - N/A   Scattered Clouds
3:50 PM 78 °F 38 °F 14% 29.75 in 6 mi SSE 6.7 mph - -   Haze
4:49 PM 75.2 °F 53.6 °F 47% 30.24 in 8.0 mi SSW 10.4 mph - N/A   Mostly Cloudy
5:50 PM 75.2 °F 51.8 °F 44% 30.23 in 8.0 mi SSE 9.2 mph - N/A   Mostly Cloudy
6:45 PM 77 °F 45 °F 21% 29.63 in 6 mi SW 6.7 mph - -   Haze
6:46 PM 69.8 °F 53.6 °F 56% 30.23 in 8.0 mi SSW 13.8 mph - N/A   Mostly Cloudy
7:48 PM 68.0 °F 53.6 °F 60% 30.25 in 8.0 mi NNW 4.6 mph - N/A   Mostly Cloudy
8:05 PM 64.4 °F 50.0 °F 59% 30.25 in 8.0 mi ENE 11.5 mph - N/A Rain , Thunderstorm Light Thunderstorms and Rain
9:40 PM 59.0 °F 53.6 °F 82% 30.30 in 8.0 mi SW 9.2 mph - N/A   Mostly Cloudy
9:45 PM 61 °F 53 °F 68% 29.68 in 3 mi Calm Calm - - Rain Light Rain
10:48 PM 57.2 °F 51.8 °F 82% 30.33 in 8.0 mi Calm Calm - N/A   Scattered Clouds
11:46 PM 57.2 °F 53.6 °F 88% 30.33 in 8.0 mi North 4.6 mph - N/A   Scattered Clouds